Location: Frankfurt+am+Main
(50.1100°N, 8.4815°E)
Time: 22:58:15
(UTC+01:00)

ISS - Pass Details

Date: 13 January 2018
Orbit: 402 x 407 km, 51.6° (Epoch: 18 January)

Event Time Altitude Azimuth Distance (km) Brightness Sun altitude
Exits shadow 05:33:54 23° 126° (SE) 924 -1.5 -25.9°
Drops below altitude 10° 05:35:16 10° 120° (ESE) 1,464 -0.2 -25.7°
Sets 05:37:21 0° 118° (ESE) 2,323 1.1 -25.4°
